DLH3RK LMML-EDDF

Flight info

Callsign DLH3RK
Flight time N/A
Altitude 34000
Route GZO M622 SOPIR DCT MABOX DCT ADEXI DCT GIANO DCT VALMA DCT GISPA DCT ABREG DCT LADOL T163 EMPAX EMPAX5B
Aircraft A321/M-SDE3FGHIRWY/LB1

Departure

Time N/A
Airport Malta International Airport (LMML)

Arrival

Time 2026-05-05 17:43
Airport Frankfurt Main Airport (EDDF)
Time Latitude Longitude Altitude Speed Heading
2026-05-05 17:27 49.37008 9.17185 14048 ft 391 kts 12°
2026-05-05 17:27 49.39646 9.18135 13505 ft 390 kts 11°
2026-05-05 17:27 49.42247 9.19064 12973 ft 389 kts 11°
2026-05-05 17:27 49.44844 9.19991 12435 ft 388 kts 11°
2026-05-05 17:28 49.47502 9.20937 11888 ft 386 kts 11°
2026-05-05 17:28 49.50094 9.21860 11349 ft 385 kts 11°
2026-05-05 17:28 49.52733 9.22800 10798 ft 383 kts 12°
2026-05-05 17:28 49.55274 9.23706 10632 ft 370 kts 12°
2026-05-05 17:29 49.57745 9.24589 10650 ft 357 kts 12°
2026-05-05 17:29 49.60164 9.25455 10668 ft 357 kts 11°
2026-05-05 17:29 49.62609 9.26329 10687 ft 356 kts 11°
2026-05-05 17:29 49.65023 9.27194 10692 ft 356 kts 11°
2026-05-05 17:30 49.67454 9.28065 10401 ft 359 kts 12°
2026-05-05 17:30 49.69891 9.28939 10048 ft 353 kts 12°
2026-05-05 17:30 49.72246 9.29786 9867 ft 343 kts 12°
2026-05-05 17:30 49.74532 9.30609 9824 ft 328 kts 12°
2026-05-05 17:31 49.76699 9.31382 9801 ft 313 kts
2026-05-05 17:31 49.78822 9.31489 9792 ft 298 kts 349°
2026-05-05 17:31 49.80863 9.30866 9800 ft 298 kts 345°
2026-05-05 17:31 49.82876 9.30106 9801 ft 298 kts 343°
2026-05-05 17:32 49.84909 9.29315 9382 ft 302 kts 343°
2026-05-05 17:32 49.86976 9.28500 8932 ft 304 kts 343°
2026-05-05 17:32 49.89014 9.27685 8491 ft 306 kts 343°
2026-05-05 17:32 49.91081 9.26857 8039 ft 307 kts 343°
2026-05-05 17:33 49.93176 9.26018 7587 ft 309 kts 343°
2026-05-05 17:33 49.95256 9.25186 7141 ft 310 kts 343°
2026-05-05 17:33 49.97322 9.24358 6839 ft 304 kts 343°
2026-05-05 17:33 49.99263 9.23586 6792 ft 282 kts 343°
2026-05-05 17:34 50.01163 9.22839 6799 ft 279 kts 343°
2026-05-05 17:34 50.03038 9.22107 6702 ft 279 kts 343°
2026-05-05 17:34 50.04889 9.21385 6422 ft 277 kts 343°
2026-05-05 17:34 50.06620 9.20603 6103 ft 273 kts 333°
2026-05-05 17:35 50.08023 9.18971 5779 ft 265 kts 306°
2026-05-05 17:35 50.08835 9.16487 5468 ft 262 kts 288°
2026-05-05 17:35 50.09353 9.13758 5162 ft 261 kts 284°
2026-05-05 17:35 50.09802 9.11083 4866 ft 260 kts 283°
2026-05-05 17:36 50.10202 9.08635 4593 ft 259 kts 283°
2026-05-05 17:36 50.10627 9.06082 4291 ft 251 kts 284°
2026-05-05 17:36 50.11039 9.03609 4028 ft 242 kts 284°
2026-05-05 17:36 50.11383 9.01541 3969 ft 233 kts 284°
2026-05-05 17:37 50.11786 8.99121 3965 ft 225 kts 284°
2026-05-05 17:37 50.12043 8.97584 3970 ft 224 kts 284°
2026-05-05 17:37 50.12242 8.94485 3971 ft 223 kts 263°
2026-05-05 17:37 50.11954 8.92366 3981 ft 224 kts 255°
2026-05-05 17:38 50.11505 8.90068 3979 ft 224 kts 252°
2026-05-05 17:38 50.11023 8.87843 3961 ft 210 kts 251°
2026-05-05 17:38 50.10552 8.85818 3931 ft 190 kts 250°
2026-05-05 17:38 50.10101 8.83934 3671 ft 181 kts 250°
2026-05-05 17:39 50.09668 8.82151 3448 ft 175 kts 250°
2026-05-05 17:39 50.09252 8.80444 3215 ft 170 kts 251°
2026-05-05 17:39 50.08839 8.78744 3042 ft 171 kts 251°
2026-05-05 17:39 50.08491 8.77310 2854 ft 171 kts 251°
2026-05-05 17:40 50.08137 8.75851 2659 ft 170 kts 251°
2026-05-05 17:40 50.07729 8.74164 2435 ft 169 kts 251°
2026-05-05 17:40 50.07323 8.72484 2218 ft 170 kts 251°
2026-05-05 17:40 50.06930 8.70853 2005 ft 170 kts 251°
2026-05-05 17:41 50.06535 8.69211 1792 ft 169 kts 251°
2026-05-05 17:41 50.06144 8.67583 1584 ft 166 kts 251°
2026-05-05 17:41 50.05755 8.65964 1344 ft 152 kts 250°
2026-05-05 17:41 50.05413 8.64538 1149 ft 146 kts 250°
2026-05-05 17:42 50.05147 8.63424 1012 ft 145 kts 250°
2026-05-05 17:42 50.04806 8.62003 835 ft 145 kts 250°
2026-05-05 17:42 50.04468 8.60584 665 ft 145 kts 250°
2026-05-05 17:42 50.04133 8.59182 484 ft 145 kts 249°
2026-05-05 17:43 50.03812 8.57838 365 ft 137 kts 248°
2026-05-05 17:43 50.03556 8.56770 353 ft 79 kts 248°
2026-05-05 17:43 50.03434 8.56245 349 ft 49 kts 256°
2026-05-05 17:43 50.03452 8.55922 348 ft 11 kts 278°
2026-05-05 17:44 50.03453 8.55913 348 ft 1 kts 277°
2026-05-05 17:44 50.03455 8.55893 348 ft 3 kts 278°
2026-05-05 17:44 50.03465 8.55784 347 ft 16 kts 280°
2026-05-05 17:44 50.03490 8.55576 347 ft 20 kts 278°
2026-05-05 17:45 50.03468 8.55361 346 ft 20 kts 250°
2026-05-05 17:45 50.03415 8.55154 345 ft 21 kts 249°
2026-05-05 17:45 50.03362 8.54934 343 ft 21 kts 252°
2026-05-05 17:45 50.03312 8.54717 342 ft 21 kts 249°
2026-05-05 17:46 50.03283 8.54520 341 ft 15 kts 293°
2026-05-05 17:46 50.03330 8.54469 341 ft 4 kts 340°
2026-05-05 17:46 50.03358 8.54453 342 ft 5 kts 340°
2026-05-05 17:46 50.03432 8.54411 342 ft 17 kts 340°
2026-05-05 17:47 50.03559 8.54336 343 ft 18 kts 341°
2026-05-05 17:47 50.03657 8.54332 344 ft 15 kts 43°
2026-05-05 17:47 50.03684 8.54416 344 ft 6 kts 70°
2026-05-05 17:47 50.03698 8.54478 344 ft 6 kts 71°
2026-05-05 17:48 50.03713 8.54542 345 ft 5 kts 71°
2026-05-05 17:48 50.03724 8.54594 345 ft 9 kts 71°
2026-05-05 17:48 50.03759 8.54748 346 ft 23 kts 70°
2026-05-05 17:48 50.03825 8.55016 348 ft 30 kts 69°
2026-05-05 17:49 50.03898 8.55324 349 ft 30 kts 70°
2026-05-05 17:49 50.03958 8.55571 350 ft 29 kts 70°
2026-05-05 17:49 50.04082 8.56098 353 ft 23 kts 72°
2026-05-05 17:50 50.04134 8.56315 354 ft 16 kts 68°
2026-05-05 17:50 50.04174 8.56472 355 ft 15 kts 70°
2026-05-05 17:50 50.04198 8.56574 356 ft 10 kts 71°
2026-05-05 17:50 50.04223 8.56683 357 ft 12 kts 71°
2026-05-05 17:51 50.04265 8.56788 358 ft 11 kts 22°
2026-05-05 17:51 50.04330 8.56823 358 ft 9 kts 15°
2026-05-05 17:51 50.04392 8.56844 359 ft 9 kts 11°
2026-05-05 17:51 50.04460 8.56863 359 ft 9 kts 10°
2026-05-05 17:52 50.04524 8.56881 360 ft 9 kts 10°
2026-05-05 17:52 50.04575 8.56897 360 ft 8 kts 15°
2026-05-05 17:52 50.04625 8.56917 360 ft 8 kts 14°
2026-05-05 17:52 50.04672 8.56927 361 ft 6 kts 342°
2026-05-05 17:53 50.04697 8.56870 360 ft 4 kts 295°
2026-05-05 17:53 50.04702 8.56851 360 ft 1 kts 295°
2026-05-05 17:53 50.04704 8.56847 360 ft 0 kts 295°